Tracking 30922 objects as of 2-Jul-2025
HD Live streaming from Space Station
objects crossing your sky now

STARLINK-3121

Track STARLINK-3121 now!
10-day predictions
STARLINK-3121 is classified as:


NORAD ID: 49428
Int'l Code: 2021-104W
Perigee: 546.1 km
Apogee: 547.6 km
Inclination: 53.2 °
Period: 95.4 minutes
Semi major axis: 6917 km
RCS: Unknown
Launch date: November 13, 2021
Source: United States (US)
Launch site: AIR FORCE EASTERN TEST RANGE (AFETR)
Your satellite tracking list
Your tracking list is empty




NASA's NSSDC Master Catalog

Two Line Element Set (TLE):
1 49428U 21104W   25182.66940412 -.00000217  00000-0  44465-5 0  9994
2 49428  53.2176 275.9080 0001102 101.2853 258.8263 15.08840037200741
Source of the keplerian elements: AFSPC